EW1845 Weather Reports


Display with metric or nautical units.
time (UTC)temp
F
wind
direction
speed
MPH
gust
MPH
rain 1hr
in
rain 24hr
in
rain mn
in
humidity
%
barometer
mb
20260508104605 57 64 0.0 3.0 0.00 0.00 0.00 94 1014.7
20260508103705 57 42 0.0 1.0 0.00 0.00 0.00 94 1014.6
20260508103004 57 58 0.0 3.0 0.00 0.00 0.00 94 1014.7
20260508102636 57 58 0.0 2.0 0.00 0.00 0.00 94 1014.7
20260508101603 57 48 0.0 2.0 0.00 0.00 0.00 94 1014.7
20260508100532 57 19 0.0 0.0 0.00 0.00 0.00 94 1014.7
20260508100103 56 18 0.0 1.0 0.00 0.00 0.00 94 1014.8
20260508094503 56 36 0.0 1.0 0.00 0.00 0.00 94 1014.8
20260508094350 57 35 0.0 0.0 0.00 0.00 0.00 94 1014.7
20260508093407 56 36 0.0 0.0 0.00 0.00 0.00 95 1014.7
20260508093103 56 36 0.0 1.0 0.00 0.00 0.00 95 1014.8
20260508092412 56 36 0.0 0.0 0.00 0.00 0.00 95 1014.7
20260508091504 55 290 0.0 0.0 0.00 0.00 0.00 94 1015.0
20260508091349 55 290 0.0 0.0 0.00 0.00 0.00 94 1014.9
20260508090320 55 290 0.0 0.0 0.00 0.00 0.00 94 1014.9
20260508090004 54 290 0.0 1.0 0.00 0.00 0.00 93 1014.9
20260508085249 55 290 0.0 0.0 0.00 0.00 0.00 93 1014.9
20260508084604 55 290 0.0 1.0 0.00 0.00 0.00 93 1015.0
20260508084300 55 290 0.0 0.0 0.00 0.00 0.00 94 1015.0
20260508083228 55 289 0.0 0.0 0.00 0.00 0.00 94 1015.0
20260508083003 54 290 0.0 1.0 0.00 0.00 0.00 94 1015.2
20260508082210 55 289 0.0 0.0 0.00 0.00 0.00 93 1015.1
20260508081618 55 290 0.0 0.0 0.00 0.00 0.00 93 1015.2
20260508080020 55 290 0.0 0.0 0.00 0.00 0.00 94 1015.4
20260508075045 55 289 0.0 0.0 0.00 0.00 0.00 93 1015.3
20260508074052 55 289 0.0 0.0 0.00 0.00 0.00 93 1015.4
20260508073044 55 289 0.0 0.0 0.00 0.00 0.00 93 1015.4
20260508073003 54 288 0.0 1.0 0.00 0.00 0.00 93 1015.4
20260508072052 55 33 0.0 0.0 0.00 0.00 0.00 93 1015.3
20260508071609 54 33 0.0 1.0 0.00 0.00 0.00 92 1015.4
20260508071032 55 33 0.0 0.0 0.00 0.00 0.00 93 1015.4
20260508070104 55 33 0.0 1.0 0.00 0.00 0.00 92 1015.3
20260508070021 55 33 0.0 0.0 0.00 0.00 0.00 92 1015.3
20260508065009 55 33 0.0 0.0 0.00 0.00 0.00 92 1015.3
20260508064502 55 33 0.0 1.0 0.00 0.00 0.00 92 1015.4
20260508064031 56 33 0.0 0.0 0.00 0.00 0.00 93 1015.3
20260508063103 55 32 0.0 1.0 0.00 0.00 0.00 93 1015.3
20260508063044 56 32 0.0 0.0 0.00 0.00 0.00 93 1015.3
20260508062056 56 34 0.0 0.0 0.00 0.00 0.00 92 1015.1
20260508061505 56 43 0.0 1.0 0.00 0.00 0.00 92 1015.2
20260508061037 56 43 0.0 0.0 0.00 0.00 0.00 92 1015.0
20260508060048 56 56 0.0 0.0 0.00 0.00 0.00 92 1015.0
20260508060003 56 56 0.0 2.0 0.00 0.00 0.00 92 1015.0
20260508055042 56 37 0.0 0.0 0.00 0.00 0.00 91 1015.2
20260508054627 56 37 0.0 2.0 0.00 0.00 0.00 91 1015.2
20260508054044 57 37 0.0 0.0 0.00 0.00 0.00 91 1015.4
20260508053021 57 21 0.0 0.0 0.00 0.00 0.00 91 1015.2
20260508053003 56 21 0.0 1.0 0.00 0.00 0.00 91 1015.2
20260508052029 57 353 0.0 0.0 0.00 0.00 0.00 90 1015.2
20260508051602 56 354 0.0 1.0 0.00 0.00 0.00 90 1015.1
20260508051017 57 353 0.0 0.0 0.00 0.00 0.00 90 1015.0
20260508050104 57 170 0.0 0.0 0.00 0.00 0.00 89 1015.0
20260508045947 57 170 0.0 0.0 0.00 0.00 0.00 89 1014.9
20260508044952 57 170 0.0 0.0 0.00 0.00 0.00 88 1014.9
20260508044502 57 170 0.0 0.0 0.00 0.00 0.00 88 1014.9
20260508043935 58 170 0.0 0.0 0.00 0.00 0.00 88 1014.9
20260508043102 57 179 0.0 0.0 0.00 0.00 0.00 87 1014.9
20260508042917 58 179 0.0 0.0 0.00 0.00 0.00 87 1014.8
20260508041502 58 179 0.0 0.0 0.00 0.00 0.00 86 1014.5
20260508040815 58 179 0.0 0.0 0.00 0.00 0.00 85 1014.4
20260508040003 58 179 0.0 1.0 0.00 0.00 0.00 85 1014.3
20260508034640 59 195 0.0 0.0 0.00 0.00 0.00 85 1014.1
20260508034605 59 195 0.0 1.0 0.00 0.00 0.00 85 1014.1
20260508033004 59 153 0.0 0.0 0.00 0.00 0.00 84 1013.9
20260508032437 60 154 0.0 0.0 0.00 0.00 0.00 84 1013.8
20260508031607 60 145 0.0 2.0 0.00 0.00 0.00 84 1013.7
20260508031417 60 155 0.0 0.0 0.00 0.00 0.00 84 1013.7
20260508030107 60 148 0.0 2.0 0.00 0.00 0.00 83 1013.6
20260508025238 61 203 0.0 1.0 0.00 0.00 0.00 83 1013.5
20260508024505 61 199 0.0 2.0 0.00 0.00 0.00 82 1013.4
20260508023119 62 194 0.0 0.0 0.00 0.00 0.00 80 1013.3
20260508023101 61 194 0.0 3.0 0.00 0.00 0.00 80 1013.3
20260508022115 62 196 0.0 2.0 0.00 0.00 0.00 79 1013.1
20260508021502 62 164 0.0 5.0 0.00 0.00 0.00 78 1013.2
20260508021130 63 142 1.0 4.0 0.00 0.00 0.00 78 1013.1
20260508020138 64 158 0.0 2.0 0.00 0.00 0.00 76 1013.0
20260508020003 63 230 0.0 3.0 0.00 0.00 0.00 75 1013.0
20260508015104 64 206 0.0 3.0 0.00 0.00 0.00 75 1012.9
20260508014603 64 133 0.0 4.0 0.00 0.00 0.00 73 1012.9
20260508013004 64 183 1.0 5.0 0.00 0.00 0.00 73 1012.9
20260508011805 65 243 1.0 6.0 0.00 0.00 0.00 71 1012.9
20260508011616 65 233 2.0 5.0 0.00 0.00 0.00 71 1013.0
20260508010809 66 195 1.0 6.0 0.00 0.00 0.00 71 1013.0
20260508010105 65 236 2.0 7.0 0.00 0.00 0.00 71 1012.9
20260508004636 67 195 2.0 6.0 0.00 0.00 0.00 69 1013.0
20260508004502 66 238 3.0 7.0 0.00 0.00 0.00 69 1013.0
20260508003640 67 184 2.0 5.0 0.00 0.00 0.00 69 1012.9
20260508003103 67 223 3.0 6.0 0.00 0.00 0.00 69 1012.9
20260508002644 68 202 2.0 7.0 0.00 0.00 0.00 69 1012.8
20260508001632 68 194 2.0 7.0 0.00 0.00 0.00 69 1012.8
20260508001502 68 233 4.0 8.0 0.00 0.00 0.00 69 1012.9
20260508000614 70 165 1.0 6.0 0.00 0.00 0.00 69 1012.9
20260508000004 69 191 1.0 5.0 0.00 0.00 0.00 69 1013.0
20260507235622 69 226 2.0 6.0 0.00 0.00 0.00 69 1013.0
20260507234602 69 187 3.0 7.0 0.00 0.00 0.00 68 1013.1
20260507234549 70 178 1.0 6.0 0.00 0.00 0.00 67 1013.0
20260507233515 70 207 3.0 7.0 0.00 0.00 0.00 66 1013.0
20260507233002 70 169 5.0 8.0 0.00 0.00 0.00 65 1013.1
20260507232537 71 195 2.0 8.0 0.00 0.00 0.00 64 1013.0
20260507231615 70 165 4.0 9.0 0.00 0.00 0.00 61 1013.1
20260507231537 71 211 2.0 8.0 0.00 0.00 0.00 61 1013.1
20260507230516 72 232 2.0 8.0 0.00 0.00 0.00 63 1013.1
20260507230104 71 187 3.0 9.0 0.00 0.00 0.00 62 1013.1
20260507224603 71 205 2.0 8.0 0.00 0.00 0.00 63 1013.3
20260507224316 72 240 3.0 10.0 0.00 0.00 0.00 61 1013.3
20260507223339 73 201 2.0 10.0 0.00 0.00 0.00 59 1013.3
20260507223002 72 134 1.0 12.0 0.00 0.00 0.00 61 1013.4
20260507222334 73 152 2.0 10.0 0.00 0.00 0.00 61 1013.4
20260507221605 71 278 4.0 11.0 0.00 0.00 0.00 62 1013.4
20260507221319 73 259 3.0 10.0 0.00 0.00 0.00 61 1013.5
20260507220310 72 205 3.0 8.0 0.00 0.00 0.00 61 1013.5
20260507215307 73 209 3.0 10.0 0.00 0.00 0.00 62 1013.6
20260507214506 72 255 4.0 9.0 0.00 0.00 0.00 62 1013.7
20260507214235 72 165 3.0 10.0 0.00 0.00 0.00 62 1013.7
20260507213209 73 222 2.0 9.0 0.00 0.00 0.00 61 1013.8
20260507213102 72 175 3.0 10.0 0.00 0.00 0.00 62 1013.9
20260507212227 72 205 4.0 8.0 0.00 0.00 0.00 62 1013.8
20260507211503 73 241 4.0 8.0 0.00 0.00 0.00 62 1014.0
20260507211157 73 262 3.0 8.0 0.00 0.00 0.00 62 1014.0
20260507210216 73 247 3.0 9.0 0.00 0.00 0.00 61 1014.0
20260507210002 72 197 2.0 10.0 0.00 0.00 0.00 62 1014.1
20260507205238 72 252 4.0 9.0 0.00 0.00 0.00 61 1014.1
20260507204603 72 248 4.0 10.0 0.00 0.00 0.00 61 1014.3
20260507203111 73 221 3.0 8.0 0.00 0.00 0.00 63 1014.3
20260507203004 72 134 4.0 8.0 0.00 0.00 0.00 62 1014.3
20260507202055 73 174 3.0 8.0 0.00 0.00 0.00 62 1014.4
20260507201603 72 141 2.0 9.0 0.00 0.00 0.00 64 1014.5
20260507201040 72 254 3.0 10.0 0.00 0.00 0.00 63 1014.5
20260507200107 71 225 1.0 10.0 0.00 0.00 0.00 65 1014.6
20260507200036 72 179 4.0 10.0 0.00 0.00 0.00 63 1014.6
20260507195038 73 275 3.0 9.0 0.00 0.00 0.00 62 1014.6
20260507194503 72 210 2.0 10.0 0.00 0.00 0.00 63 1014.8
20260507194046 72 201 3.0 9.0 0.00 0.00 0.00 62 1014.8
20260507193103 71 153 3.0 8.0 0.00 0.00 0.00 64 1014.9
20260507193048 72 234 3.0 9.0 0.00 0.00 0.00 64 1014.9
20260507191502 72 176 4.0 9.0 0.00 0.00 0.00 63 1015.1
20260507190004 71 245 4.0 7.0 0.00 0.00 0.00 64 1015.2
20260507185819 71 200 2.0 7.0 0.00 0.00 0.00 65 1015.1
20260507184818 71 226 2.0 7.0 0.00 0.00 0.00 63 1015.2
20260507184603 71 232 2.0 6.0 0.00 0.00 0.00 64 1015.3
20260507183809 71 193 2.0 8.0 0.00 0.00 0.00 65 1015.3
20260507182820 71 163 2.0 8.0 0.00 0.00 0.00 65 1015.4
20260507181748 71 140 3.0 6.0 0.00 0.00 0.00 65 1015.4
20260507181602 70 144 3.0 7.0 0.00 0.00 0.00 65 1015.5
20260507180750 70 233 2.0 6.0 0.00 0.00 0.00 64 1015.4
20260507180109 70 238 3.0 7.0 0.00 0.00 0.00 63 1015.5
20260507174550 69 240 2.0 5.0 0.00 0.00 0.00 66 1015.5
20260507174506 68 248 1.0 5.0 0.00 0.00 0.00 68 1015.5
20260507173602 68 187 2.0 5.0 0.00 0.00 0.00 68 1015.6
20260507173106 67 203 3.0 7.0 0.00 0.00 0.00 68 1015.6
20260507172531 68 243 2.0 6.0 0.00 0.00 0.00 68 1015.6
20260507171527 67 278 2.0 6.0 0.00 0.00 0.00 69 1015.7
20260507171503 67 124 2.0 7.0 0.00 0.00 0.00 69 1015.7
20260507170506 67 207 2.0 6.0 0.00 0.00 0.00 71 1015.6
20260507170003 66 229 3.0 6.0 0.00 0.00 0.00 71 1015.6
20260507164603 66 182 2.0 4.0 0.00 0.00 0.00 72 1015.7
20260507163204 65 210 2.0 5.0 0.00 0.00 0.00 73 1015.8
20260507163003 64 248 2.0 5.0 0.00 0.00 0.00 73 1015.8
20260507162147 64 221 2.0 5.0 0.00 0.00 0.00 75 1015.8
20260507161603 64 190 2.0 6.0 0.00 0.00 0.00 76 1015.8
20260507161145 64 204 1.0 4.0 0.00 0.00 0.00 75 1015.8
20260507160136 63 219 2.0 5.0 0.00 0.00 0.00 78 1015.8
20260507160119 63 212 1.0 5.0 0.00 0.00 0.00 77 1015.9
20260507155150 63 241 1.0 5.0 0.00 0.00 0.00 78 1015.9
20260507153103 61 210 2.0 4.0 0.00 0.00 0.00 81 1016.0
20260507151846 60 239 0.0 2.0 0.00 0.00 0.00 83 1015.9
20260507151502 60 200 0.0 3.0 0.00 0.00 0.00 83 1016.0
20260507150909 60 219 0.0 1.0 0.00 0.00 0.00 84 1016.0
20260507150004 59 161 0.0 2.0 0.00 0.00 0.00 85 1016.0
20260507145903 59 160 0.0 1.0 0.00 0.00 0.00 85 1015.9
20260507144847 59 207 0.0 0.0 0.00 0.00 0.00 86 1015.9
20260507144602 58 207 0.0 2.0 0.00 0.00 0.00 86 1016.0
20260507143850 58 354 0.0 1.0 0.00 0.00 0.00 86 1015.8
20260507142843 57 359 0.0 0.0 0.00 0.00 0.00 87 1015.8
20260507141852 57 359 0.0 0.0 0.00 0.00 0.00 88 1015.7
20260507141633 56 359 0.0 1.0 0.00 0.00 0.00 89 1015.7
20260507140912 55 347 0.0 0.0 0.00 0.00 0.00 90 1015.7
20260507140115 54 346 0.0 0.0 0.00 0.00 0.00 90 1015.7
20260507135838 55 346 0.0 0.0 0.00 0.00 0.00 90 1015.7
20260507134827 54 346 0.0 0.0 0.00 0.00 0.00 90 1015.6
20260507134502 54 346 0.0 1.0 0.00 0.00 0.00 90 1015.6
20260507133815 54 346 0.0 0.0 0.00 0.00 0.00 89 1015.4
20260507133107 54 346 0.0 1.0 0.00 0.00 0.00 90 1015.3
20260507132838 54 346 0.0 0.0 0.00 0.00 0.00 90 1015.3
20260507131900 54 346 0.0 0.0 0.00 0.00 0.00 88 1015.3
20260507131503 54 346 0.0 1.0 0.00 0.00 0.00 88 1015.3
20260507130844 54 347 0.0 0.0 0.00 0.00 0.00 89 1015.3
20260507130109 54 347 0.0 1.0 0.00 0.00 0.00 88 1015.2
20260507125841 55 346 0.0 0.0 0.00 0.00 0.00 89 1015.2
20260507124850 55 346 0.0 0.0 0.00 0.00 0.00 89 1015.2
20260507124504 54 347 0.0 1.0 0.00 0.00 0.00 88 1015.2
20260507123909 55 347 0.0 0.0 0.00 0.00 0.00 88 1015.1
20260507123106 54 346 0.0 1.0 0.00 0.00 0.00 90 1015.1
20260507122842 54 346 0.0 0.0 0.00 0.00 0.00 90 1015.0
20260507121813 54 348 0.0 0.0 0.00 0.00 0.00 90 1015.0
20260507121503 53 348 1.0 1.0 0.00 0.00 0.00 89 1015.1
20260507120004 53 348 0.0 1.0 0.00 0.00 0.00 90 1015.2
20260507114602 54 348 0.0 1.0 0.00 0.00 0.00 89 1015.2
20260507113436 55 347 0.0 0.0 0.00 0.00 0.00 88 1015.2
20260507113002 54 347 0.0 1.0 0.00 0.00 0.00 88 1015.3
20260507112407 55 347 0.0 0.0 0.00 0.00 0.00 89 1015.3
20260507111407 54 348 0.0 0.0 0.00 0.00 0.00 89 1015.3
20260507110401 55 347 0.0 0.0 0.00 0.00 0.00 90 1015.3
20260507110003 54 347 0.0 1.0 0.00 0.00 0.00 91 1015.3
20260507105356 54 347 0.0 0.0 0.00 0.00 0.00 91 1015.4